Location: Hobi?a Gr?di?te
(45.4833°N, 22.7833°E)
Time: 11:15:22
(UTC+00:00)

Cosmos 614 Rocket - Pass Details

Date: 28 January 2023
Orbit: 733 x 762 km, 74.1° (Epoch: 20 March)

Event Time Altitude Azimuth Distance (km) Brightness Sun altitude
Rises 15:54:22 0° 194° (SSW) 3,210 7.8 -4.9°
Reaches altitude 10° 15:56:44 10° 192° (SSW) 2,288 7.0 -5.3°
Maximum altitude 16:01:54 74° 109° (ESE) 793 4.0 -6.1°
Drops below altitude 10° 16:07:06 10° 25° (NNE) 2,294 6.1 -7.0°
Sets 16:09:28 0° 23° (NNE) 3,220 6.8 -7.4°
